Location: Spring Creek
(38.2870°N, 100.2160°W)
Time: 01:05:53
(UTC+00:00)

Cosmos 1553 Rocket - Pass Details

Date: 08 May 2021
Orbit: 942 x 1007 km, 82.9° (Epoch: 24 June)

Event Time Altitude Azimuth Distance (km) Brightness Sun altitude
Rises 02:52:49 0° 186° (S) 3,597 6.7 -13.6°
Reaches altitude 10° 02:55:17 10° 186° (S) 2,660 6.0 -14.0°
Maximum altitude 03:01:22 87° 275° (W) 963 4.0 -15.0°
Drops below altitude 10° 03:07:36 10° 6° (N) 2,715 6.8 -15.9°
Sets 03:10:08 0° 7° (N) 3,675 7.5 -16.3°
